User: anonymous
Location: Bangkok
(13.7500°N, 100.5170°E)
Time: 04:29:20
(UTC+07:00)
Language:

Cosmos 1898 Rocket - Orbit

View from above orbital plane
View from above orbital plane
View from above satellite
View from above satellite

Ground track
Ground track

The orbit data is extracted from the following two-line orbital elements,

1 18586U 87098B   14258.45779892  .00000137  00000-0  55597-4 0  1203
2 18586 074.0097 346.9460 0022233 281.6249 156.3622 14.36455606402936
Epoch (UTC): 15 September 2014 10:59:13
Eccentricity: 0.0022233
inclination: 74.0097°
perigee height: 754 km
apogee height: 786 km
right ascension of ascending node: 346.9460°
argument of perigee: 281.6249°
revolutions per day: 14.36455606
mean anomaly at epoch: 156.3622°
orbit number at epoch: 40293

The dashed part of the orbit path shows where the satellite is in the earth's shadow,  

DLR